Akron, OH

4:24 AM EDT on June 29, 2017 (GMT -0400)
Akron Fulton International

Weather History for KAKR - May, 2013

Change the Weather History Date:

Sunday, May 26, 2013

  Actual Average (KCAK) Record (KCAK)
Temperature  
Mean Temperature 49 °F -  
Max Temperature 64 °F 71 °F 89 °F (1939)
Min Temperature 34 °F 49 °F 32 °F (1961)
Degree Days  
Heating Degree Days 16    
Moisture  
Dew Point 32 °F    
Average Humidity 52    
Maximum Humidity 89    
Minimum Humidity 25    
Precipitation  
Precipitation 0.00 in - - ()
Sea Level Pressure  
Sea Level Pressure 30.29 in    
Wind  
Wind Speed 4 mph (NW)    
Max Wind Speed 10 mph    
Max Gust Speed 18 mph    
Visibility 10 miles    
Events      
Averages and records for this station are not official NWS values.
T = Trace of Precipitation, MM = Missing Value Source: NWS Daily Summary

Daily Weather History Graph

Daily Weather History Graph

Search for Another Location

Airport or City:

Trip Planner

Search our weather history database for the weather conditions in past years. The results will help you decide how hot, cold, wet, or windy it might be!

Date:

Astronomy

May. 26, 2013 Rise Set
Actual Time 5:59 AM EDT 8:47 PM EDT
Civil Twilight 5:26 AM EDT 9:19 PM EDT
Nautical Twilight 4:45 AM EDT 10:00 PM EDT
Astronomical Twilight 3:59 AM EDT 10:47 PM EDT
Moon 10:33 PM EDT (5/26) 7:26 AM EDT (5/26)
Length of Visible Light 15h 53m
Length of Day
14h 48m
Waning Gibbous, 97% of the Moon is Illuminated
May 26
Waning Gibbous
May 31
Last Quarter
Jun 8
New
Jun 16
First Quarter
Jun 23
Full

Hourly Weather History & Observations

Time (EDT) Temp. Windchill Dew Point Humidity Pressure Visibility Wind Dir Wind Speed Gust Speed Precip Events Conditions
12:54 AM 43.0 °F 41.3 °F 32.0 °F 65% 30.29 in 10.0 mi West 3.5 mph - N/A   Clear
1:54 AM 42.1 °F 40.2 °F 33.1 °F 70% 30.27 in 10.0 mi West 3.5 mph - N/A   Clear
2:54 AM 39.0 °F - 32.0 °F 76% 30.27 in 10.0 mi Calm Calm - N/A   Clear
3:54 AM 37.0 °F - 30.9 °F 79% 30.27 in 10.0 mi Calm Calm - N/A   Clear
4:54 AM 37.0 °F - 33.1 °F 86% 30.29 in 10.0 mi Calm Calm - N/A   Clear
5:54 AM 34.0 °F - 30.0 °F 85% 30.30 in 10.0 mi Calm Calm - N/A   Clear
6:54 AM 37.0 °F - 34.0 °F 89% 30.32 in 10.0 mi Calm Calm - N/A   Clear
7:54 AM 45.0 °F 41.8 °F 39.0 °F 80% 30.33 in 10.0 mi North 5.8 mph - N/A   Clear
8:54 AM 51.1 °F - 37.9 °F 61% 30.31 in 10.0 mi NNW 5.8 mph - N/A   Clear
9:54 AM 55.9 °F - 35.1 °F 45% 30.32 in 10.0 mi North 9.2 mph - N/A   Clear
10:54 AM 57.9 °F - 34.0 °F 41% 30.32 in 10.0 mi Variable 6.9 mph - N/A   Clear
11:54 AM 60.1 °F - 34.0 °F 38% 30.32 in 10.0 mi North 8.1 mph - N/A   Clear
12:54 PM 61.0 °F - 30.9 °F 32% 30.31 in 10.0 mi NNW 10.4 mph 18.4 mph N/A   Clear
1:54 PM 63.0 °F - 28.9 °F 28% 30.30 in 10.0 mi Variable 6.9 mph - N/A   Clear
2:54 PM 64.0 °F - 28.9 °F 27% 30.30 in 10.0 mi NW 9.2 mph 17.3 mph N/A   Clear
3:54 PM 63.0 °F - 28.0 °F 27% 30.29 in 10.0 mi WNW 8.1 mph - N/A   Clear
4:54 PM 64.0 °F - 27.0 °F 25% 30.28 in 10.0 mi WNW 9.2 mph - N/A   Clear
5:54 PM 63.0 °F - 28.9 °F 28% 30.27 in 10.0 mi NW 10.4 mph - N/A   Clear
6:54 PM 62.1 °F - 28.9 °F 29% 30.26 in 10.0 mi NNW 8.1 mph - N/A   Clear
7:54 PM 59.0 °F - 30.9 °F 35% 30.25 in 10.0 mi NNW 8.1 mph - N/A   Clear
8:54 PM 55.9 °F - 30.9 °F 39% 30.24 in 10.0 mi North 4.6 mph - N/A   Clear
9:54 PM 54.0 °F - 33.1 °F 45% 30.25 in 10.0 mi Calm Calm - N/A   Clear
10:54 PM 50.0 °F - 34.0 °F 54% 30.27 in 10.0 mi Calm Calm - N/A   Clear
11:54 PM 44.1 °F - 35.1 °F 71% 30.27 in 10.0 mi Calm Calm - N/A   Clear